[[{"header":{"parameterUnit":"m.s-1","parameterCategory":1,"la1":30.2992,"la2":30.254,"lo1":-89.0895,"lo2":-89.0443,"dy":0.0025,"dx":0.0025,"nx":19,"ny":19,"refTime":"2026-04-03T09:00:00:Z","depth":0,"parameterNumber":2,"parameterNumberName":"U-component_of_WINDS"},"data":[0,0,0,-4.7188,-4.7191,-4.7304,-4.7304,-4.7466,-4.7468,0,0,0,0,0,0,0,0,0,0,0,-4.7166,-4.7168,-4.7188,-4.7191,-4.7304,-4.7304,-4.7466,-4.7468,0,0,0,0,0,0,0,0,0,0,0,-4.7165,-4.7167,-4.7169,-4.7191,-4.7304,-4.7304,-4.7465,-4.7374,0,0,0,0,0,0,0,0,0,0,-4.7261,-4.7252,-4.7167,-4.7169,-4.7192,-4.7304,-4.7304,-4.7369,-4.738,-4.7423,0,-4.7465,0,-4.7469,-4.748,-4.7481,0,0,0,-4.7182,-4.7244,-4.7264,-4.717,-4.7193,-4.7303,-4.725,-4.7375,-4.7387,-4.7437,-4.7468,-4.7473,-4.7472,-4.7481,-4.7482,-4.7764,-4.7766,0,0,-4.7176,-4.7192,-4.7256,-4.7272,-4.7257,-4.7247,-4.7254,-4.7382,-4.7416,-4.7468,-4.7477,-4.7475,-4.7482,-4.7484,-4.7763,-4.7765,0,0,0,-4.7164,-4.7189,-4.7205,-4.7266,-4.7285,-4.725,-4.7258,-4.741,-4.7414,-4.7478,-4.7477,-4.7483,-4.7486,-4.7761,-4.7764,-4.7865,0,0,0,-4.716,-4.7182,-4.7203,-4.7214,-4.7283,-4.7349,-4.7284,-4.7405,-4.7419,-4.7476,-4.7483,-4.7487,-4.7759,-4.7762,-4.7858,-4.791,0,0,0,-4.7155,-4.7181,-4.7201,-4.7215,-4.7264,-4.7347,-4.7358,-4.7408,-4.7419,-4.7481,-4.7488,-4.7758,-4.7762,-4.7852,-4.79,-4.7989,0,0,0,-4.7154,-4.729,-4.7203,-4.7354,-4.7263,-4.741,-4.7357,-4.7465,-4.753,-4.7484,-4.7759,-4.7763,-4.785,-4.7894,-4.7983,-4.8066,-4.8103,0,0,-4.7334,-4.7312,-4.74,-4.7325,-4.7491,-4.7391,-4.7572,-4.7615,-4.7606,-4.7712,-4.7719,-4.7861,-4.7899,-4.7988,-4.8305,-4.8335,0,0,0,-4.7462,-4.7525,-4.7566,-4.7629,-4.7667,-4.7703,-4.7717,-4.7734,-4.7823,-4.7664,-4.7917,-4.7939,-4.7991,-4.803,-4.8055,-4.8097,-4.7783,-4.7782,-4.7782,-4.774,-4.7722,-4.7865,-4.7861,-4.7923,-4.7937,-4.7986,-4.801,-4.7972,-4.8033,-4.8063,-4.8259,-4.8305,-4.8324,-4.8368,-4.8107,-4.8108,-4.8108,-4.8108,-4.8001,-4.8087,-4.8036,-4.8156,-4.8136,-4.8236,-4.8256,-4.8226,-4.8317,-4.8234,-4.8278,-4.8187,-4.8357,-4.8394,-4.8116,-4.8114,-4.8113,-4.8113,-4.8112,-4.818,-4.8218,-4.8237,-4.8327,-4.8399,-4.839,-4.8479,-4.8457,-4.8437,-4.8481,-4.8511,-4.8509,-4.8504,-4.8497,-4.8498,-4.8499,-4.8499,-4.85,-4.85,-4.8357,-4.8375,-4.8454,-4.8506,-4.8544,-4.8592,-4.8609,-4.8646,-4.8681,-4.8658,-4.8658,-4.8614,-4.8377,-4.8317,-4.8511,-4.8509,-4.8508,-4.8507,-4.8506,-4.8627,-4.8563,-4.8684,-4.8723,-4.8782,-4.8855,-4.8827,-4.8904,-4.8932,-4.8977,-4.8924,-4.8753,-4.8728,-4.8708,-4.8658,-4.8928,-4.8928,-4.8928,-4.8928,-4.8776,-4.8763,-4.8882,-4.8945,-4.9004,-4.8992,-4.9129,-4.9144,-4.9149,-4.9165,-4.9123,-4.9056,-4.9037,-4.9023,-4.8996,-4.8949,-4.9287,-4.9287,-4.9288,-4.8941,-4.8932,-4.9052,-4.9058,-4.9103,-4.9143,-4.9271,-4.9345,-4.9338,-4.9302,-4.9177,-4.9161,-4.9053,-4.9018,-4.8977,-4.8936,-4.885,0,0]},{"header":{"parameterUnit":"m.s-1","parameterCategory":1,"la1":30.2992,"la2":30.254,"lo1":-89.0895,"lo2":-89.0443,"dy":0.0025,"dx":0.0025,"nx":19,"ny":19,"refTime":"2026-04-03T09:00:00:Z","depth":0,"parameterNumber":3,"parameterNumberName":"V-component_of_WINDS"},"data":[0,0,0,1.288,1.288,1.2892,1.2892,1.2912,1.2912,0,0,0,0,0,0,0,0,0,0,0,1.288,1.288,1.288,1.288,1.2892,1.2892,1.2912,1.2912,0,0,0,0,0,0,0,0,0,0,0,1.2879,1.288,1.288,1.288,1.2892,1.2892,1.2912,1.2901,0,0,0,0,0,0,0,0,0,0,1.2889,1.2891,1.288,1.288,1.288,1.2892,1.2892,1.2901,1.2902,1.2909,0,1.2917,0,1.2915,1.2914,1.2914,0,0,0,1.2877,1.289,1.2891,1.288,1.2881,1.2892,1.2886,1.2901,1.2903,1.2911,1.2917,1.2917,1.2915,1.2914,1.2914,1.2968,1.2968,0,0,1.2877,1.2883,1.289,1.2892,1.2891,1.2886,1.2886,1.2902,1.2909,1.2917,1.2918,1.2916,1.2914,1.2915,1.2967,1.2968,0,0,0,1.2877,1.2883,1.2883,1.2892,1.2894,1.2886,1.2887,1.2908,1.2908,1.2918,1.2916,1.2915,1.2915,1.2967,1.2967,1.2993,0,0,0,1.2876,1.2883,1.2883,1.2886,1.2893,1.2901,1.2893,1.2907,1.2908,1.2916,1.2915,1.2915,1.2966,1.2967,1.2992,1.3004,0,0,0,1.2878,1.2883,1.2886,1.2887,1.2892,1.2901,1.2901,1.2907,1.2907,1.2914,1.2915,1.2966,1.2967,1.299,1.3001,1.3021,0,0,0,1.288,1.2906,1.2886,1.2915,1.2892,1.2917,1.2901,1.2918,1.2928,1.2915,1.2966,1.2967,1.299,1.3,1.3019,1.3038,1.3046,0,0,1.2917,1.2911,1.2928,1.291,1.294,1.2915,1.2948,1.295,1.2944,1.296,1.2961,1.2992,1.3001,1.302,1.3092,1.3099,0,0,0,1.2941,1.2953,1.296,1.297,1.2974,1.2978,1.2974,1.2975,1.2989,1.2954,1.3004,1.3009,1.302,1.3029,1.3035,1.3044,1.2972,1.2972,1.2972,1.3,1.2994,1.3021,1.3017,1.3027,1.3025,1.3033,1.3034,1.3022,1.3035,1.3039,1.3083,1.3094,1.3098,1.3108,1.3048,1.3049,1.3049,1.3049,1.3053,1.3069,1.3057,1.3079,1.3072,1.3091,1.3091,1.3083,1.3099,1.3079,1.3088,1.3067,1.3106,1.3114,1.3051,1.305,1.305,1.305,1.305,1.309,1.3097,1.31,1.3116,1.313,1.3125,1.3142,1.3135,1.3127,1.3137,1.3142,1.3141,1.314,1.314,1.314,1.314,1.314,1.314,1.3141,1.3128,1.3131,1.3146,1.3155,1.3162,1.3171,1.3171,1.3178,1.3183,1.3177,1.3177,1.3165,1.3111,1.3098,1.3143,1.3143,1.3142,1.3142,1.3142,1.3183,1.3171,1.3195,1.3203,1.3214,1.3229,1.3221,1.3235,1.324,1.3249,1.3236,1.3198,1.3191,1.3186,1.3175,1.3237,1.3237,1.3237,1.3237,1.3215,1.3212,1.3237,1.325,1.3262,1.3258,1.3287,1.3289,1.3288,1.3291,1.3281,1.3266,1.3262,1.3257,1.3251,1.3241,1.3318,1.3318,1.3318,1.3249,1.3248,1.3273,1.3274,1.3283,1.3291,1.3319,1.3334,1.3331,1.3322,1.3293,1.329,1.3265,1.3258,1.3246,1.3237,1.3217,0,0]}]]